Regional Weather Roundup
Issued by NWS

Home | Current Version | Previous Version | Graphics & Text | Print | Product List | Glossary On
Versions: 1 2 3 4 5 6 7 8 9 10 11 12 13 14 15 16 17 18 19 20 21 22 23 24 25 26 27 28 29 30 31 32 33 34 35 36 37 38 39 40 41 42 43 44 45 46 47 48 49 50
000
ASUS45 KSLC 222010
RWRUT

UTAH REGIONAL WEATHER ROUNDUP
NATIONAL WEATHER SERVICE SALT LAKE CITY UT
100 PM MST MON DEC 22 2014

UTZ001>011-023>025-222100-

NORTHERN UTAH

CITY           SKY/WX    TMP DP  RH WIND       PRES   REMARKS
BRIGHAM CITY   CLOUDY    43  31  62 NW17      30.01S
HILL AFB       PTSUNNY   40  37  86 W10       29.99F WCI  34
LOGAN          CLOUDY    41  31  67 NW16      29.99S
OGDEN          CLOUDY    43  34  70 NW20G26   29.98F
PROVO AIRPORT  NOT AVBL
SALT LAKE CITY PTSUNNY   43  35  73 N3        29.99F
VERNAL         PTSUNNY   41  33  73 SE6       29.82F
WENDOVER       MOSUNNY   52  34  50 N21G29    30.06R
HEBER CITY     MIX PCPN  37  34  87 SW5       29.92F WCI  34
WEST JORDAN    CLOUDY    43  41  93 N5        30.00F

$$

UTZ012>022-026-027-222100-

SOUTHERN/CENTRAL UTAH

CITY           SKY/WX    TMP DP  RH WIND       PRES   REMARKS
BLANDING       CLOUDY    42  39  90 CALM      29.92F
BRYCE CANYON   LGT RAIN  42  32  67 W21G39    29.96F
CEDAR CITY     CLOUDY    56  32  40 NW15G25   29.97F
DELTA          CLOUDY    42  40  95 N7        30.04F
MILFORD        LGT RAIN  48  39  71 NE21G26   30.00R
MOAB/CYNLANDS  SUNNY     50  38  63 NW7       29.83S
PRICE          MOSUNNY   45  27  49 NW25G38   29.86F
ST GEORGE      CLOUDY    55  37  50 CALM      29.99F
KANAB          SUNNY     57  34  41 SW10      30.01F

$$

REGIONAL REPORTS     COLORADO/ARIZONA

CITY           SKY/WX    TMP DP  RH WIND       PRES   REMARKS
CRAIG, CO      PTSUNNY   36  25  64 NW18G28   29.78F WCI  26
GRAND JUNCTION CLOUDY    42  37  82 NW7       29.78F
RIFLE          PTSUNNY   38  30  73 W10       29.79F WCI  31
MONTROSE       CLOUDY    39  35  86 NE6       29.78F WCI  35
CORTEZ         MOSUNNY   42  37  82 W14       29.83F
PAGE, AZ       SUNNY     62  33  33 W14G24    29.85F
GRAND CANYON   SUNNY     51  34  52 NW9       30.03F
KINGMAN        SUNNY     64  37  36 N8        30.03F
FLAGSTAFF      SUNNY     52  30  43 W8G21     30.02F

$$

REGIONAL REPORTS    NEVADA/IDAHO/WYOMING

CITY           SKY/WX    TMP DP  RH WIND       PRES   REMARKS
LAS VEGAS, NV    N/A    N/A N/A N/A MISG      29.96F
ELY            CLOUDY    47  36  65 NW12      30.11F
ELKO           PTSUNNY   48  39  71 W23G29    30.15F
POCATELLO, ID  PTSUNNY   42  35  76 W16       30.00S
BURLEY         PTSUNNY   44  34  67 W22G38    30.01F
EVANSTON, WY   LGT SNOW  32  26  78 W22       29.92F WCI  19
ROCK SPRINGS   PTSUNNY   31  20  63 NW22G29   29.81S WCI  18
KEMMERER       PTSUNNY   32  25  74 W26G39    29.87S WCI  18

$$



USA.gov is the U.S. government's official web portal to all federal, state and local government web resources and services.